Dewpoint
1 -0 -2 -1 4 7 8 7 6 3 3 2 1 -0 0 1 3 2 1 -1 -6 -5 -6 -6 -2 -5 -5 -4 -3 -3 -7 -6 -6 -7 -4 -2 -2 -1 -3 -3 -3 1 1 6 11
-1 1 0 -0 3 4 7 8 7 5 3 3 2 1 -0 -0 2 6 1 -1 -5 -3 -4 -2 -3 -5 -7 -5 -5 -6 -6 -8 -9 -9 -6 -2 -3 -2 -3 -4 -2 2 7 10 12
-0 0 -1 2 3 3 4 6 8 7 4 3 2 2 1 -1 3 3 0 -0 -2 -4 -4 -3 -5 -7 -8 -6 -6 -9 -5 -10 -9 -8 -6 -2 -2 -3 -5 -3 -5 -1 6 12 12
-2 0 -3 -0 2 3 -0 2 6 7 6 3 2 2 2 2 3 1 0 -0 -0 -4 1 -4 -6 -7 -7 -5 -8 -6 -10 -12 -10 -5 -5 -2 -3 -5 -5 -5 -5 -4 4 11 12
-2 -2 0 1 1 0 1 -1 2 7 7 4 2 3 3 4 1 1 -1 0 -0 -3 0 -4 -6 -9 -8 -9 -7 -7 -10 -10 -6 -5 -4 -3 -3 -5 -5 -6 -5 -5 3 9 12
-1 -2 -0 -0 -1 0 -0 -1 0 6 7 6 2 3 4 4 1 -2 -1 1 -0 -3 -0 -4 -7 -9 -9 -11 -7 -11 -8 -6 -5 -6 -6 -5 -6 -6 -7 -6 -6 -4 1 6 9
-2 -2 -2 -1 -3 -2 2 1 1 5 7 7 3 3 5 3 1 -2 -2 6 1 -2 -1 -3 -6 -7 -7 -8 -7 -8 -5 -4 -4 -5 -5 -6 -5 -5 -6 -4 -6 -4 -1 3 6
-2 -1 -3 -2 -2 -1 0 3 1 4 6 7 4 4 5 2 3 0 1 4 1 1 -0 -3 -4 -5 -4 -4 -6 -6 -8 -5 -5 -4 -4 -4 -4 -6 -4 -5 -6 -5 -2 3 5
-2 -2 -2 -3 -1 -2 -2 2 2 2 6 6 4 6 3 2 2 -0 -0 2 1 0 -2 -2 -3 -4 -2 -3 -4 -8 -6 -7 -2 -4 -3 -4 -7 -4 -3 -3 -5 -6 -5 -0 5
-3 -2 -3 -6 -5 -2 -2 -0 1 1 5 6 5 6 3 1 1 -0 -0 2 0 -0 -1 -2 -3 -3 -4 -2 2 -3 -5 -8 -4 -2 -3 -3 -3 -3 -3 -3 -3 -4 -4 -4 -2
-2 -4 -6 -9 -8 -2 -2 -4 4 6 5 6 5 2 0 0 -0 0 -0 1 0 -1 -1 -2 -0 0 -5 -3 -5 -4 -6 -3 -6 -2 -2 -3 -4 -2 -3 -2 -2 -3 -3 -2 -4
-3 -7 -7 -6 -5 -1 -1 1 0 0 1 4 5 3 1 0 -0 0 -0 -1 0 1 -1 1 1 -3 -4 -4 -2 -2 -2 -3 -0 -2 -2 -2 -2 -3 -2 -3 -2 -2 -2 -1 0
-2 -6 -6 -4 -5 -2 1 0 -0 -0 1 4 3 4 2 1 -2 0 -0 -1 -1 2 1 2 -1 -2 -2 -2 -1 -1 -1 -1 -0 -1 -2 -1 0 -1 -2 -2 -1 -0 1 1 1
-6 -5 -3 -3 0 0 1 1 -1 -2 3 5 5 4 3 1 -1 -1 -1 -1 -1 0 0 1 -2 -1 -1 -0 -1 0 -3 -2 1 1 2 -2 0 -1 -1 -1 -1 -0 1 1 2
-4 -6 -6 -5 -0 1 0 -1 -1 -0 5 1 3 2 2 -1 -1 -0 -0 -2 -1 -1 -0 1 -1 0 1 -0 -2 -1 -2 -1 1 1 1 1 1 -5 -2 -1 -1 -1 0 1 2
-3 -3 -3 1 0 0 -2 -2 -0 3 6 4 3 3 3 0 -2 -1 -0 -2 -3 -3 -2 -1 -2 -2 -1 -2 -2 -1 -0 1 2 3 7 0 -0 -3 -3 -4 -3 -1 0 1 2
-3 -4 -3 -0 0 -1 -2 -0 2 2 2 4 4 3 4 1 -0 0 1 1 -0 1 1 -1 -1 -2 -2 -1 -2 -1 0 8 8 11 5 -2 0 -2 -4 -3 -4 -1 -0 1 2
-3 -4 0 -1 1 -0 0 1 1 -2 -0 -1 4 2 5 1 0 0 1 1 -2 -3 -0 3 5 -0 -2 -2 0 -1 1 9 9 6 3 -2 1 -3 -3 -1 -2 -1 0 1 2
-5 0 0 0 -1 -0 1 0 -2 -5 -2 0 1 5 4 1 -0 -1 0 0 -1 -4 -0 0 0 -1 -2 -1 -2 -0 2 -2 -1 -3 -0 -1 -4 -0 -0 -1 -1 -0 0 1 1
-1 0 0 -1 -0 1 1 -1 -3 -5 -1 -1 1 3 4 3 3 1 -0 -2 -2 -4 -6 -4 1 0 -1 -1 -1 -1 -3 1 -0 4 -1 -3 -4 -2 2 0 -0 -0 0 1 1
-0 -1 -0 -2 -0 0 1 -2 -4 -5 -4 0 -1 2 4 3 3 3 -1 -3 -3 -3 -4 -5 -4 2 -0 1 -1 -1 -1 -3 -3 1 3 -4 -5 -7 -2 -0 0 -1 -0 -0 -0
-0 -1 0 -1 0 -0 1 -1 -1 -4 -2 -2 -1 1 2 3 3 2 -0 -3 -4 -4 -2 -5 -6 3 2 -1 -1 -4 -4 -4 -1 -2 -2 -0 -3 -3 -1 -1 -1 -1 -1 -1 -1
-0 -1 -1 -1 1 -0 -3 1 -4 -1 -2 -0 0 -0 0 4 4 1 -0 -4 -4 -3 -3 -5 -3 2 2 0 -1 1 -2 -4 -5 -6 -3 -0 -7 -2 -0 -1 -1 -1 -1 -2 -2
-1 -0 -2 -0 -0 1 -1 -3 -3 -3 -2 -3 -0 0 2 3 3 1 1 -1 -4 -3 -3 -4 -4 -2 2 -1 -2 1 -1 -2 -3 -2 -3 -4 -8 -1 1 0 -1 -2 -2 -2 -3
-1 -1 -2 -1 -2 -1 -1 -0 -0 0 -3 -3 2 1 3 5 5 1 0 2 0 -3 -0 -4 -2 -4 -6 -6 -3 -1 -0 -0 -1 -3 -3 -7 -7 -7 -1 -0 -1 -2 -3 -3 -4
-1 -1 -2 -1 -2 -0 -1 -0 0 1 1 -0 0 3 3 3 6 4 1 2 1 -0 -1 -1 7 2 0 -6 -3 -1 -1 -0 -1 -2 -4 -7 -8 -8 -4 -1 -1 -2 -3 -4 -5
-2 -2 -2 -2 -1 -1 0 -0 -1 -2 -2 -3 -1 -0 3 3 1 1 1 1 3 3 2 5 5 7 3 -2 3 4 -1 -1 -1 -2 -3 -1 -1 -3 -1 -0 -1 -2 -3 -4 -5
Wind_Speed
18 17 17 20 25 14 9 15 18 18 17 14 15 15 18 14 14 19 24 18 23 12 20 18 15 13 13 9 6 4 6 10 12 9 9 14 10 7 4 8 6 7 3 10 22
19 16 16 18 22 26 14 9 15 18 18 15 13 14 15 17 13 23 27 17 15 16 22 21 18 17 11 9 7 8 9 14 8 7 8 16 13 12 8 10 9 9 9 18 22
18 16 17 13 16 20 23 17 9 15 17 17 13 13 11 14 9 19 22 23 20 21 18 17 15 18 14 12 11 8 11 8 4 4 4 15 12 12 9 11 11 15 15 20 23
18 15 16 16 16 19 18 26 19 13 16 16 14 11 10 10 7 5 10 22 22 23 18 18 21 18 12 12 17 8 15 5 6 7 8 14 12 9 11 6 4 7 18 20 25
16 15 15 16 16 19 24 20 26 13 15 16 16 11 7 11 19 13 7 17 26 26 25 22 23 21 15 15 13 13 7 7 6 8 8 10 12 8 11 5 4 8 16 19 20
14 14 14 15 15 17 17 22 24 24 13 15 16 14 12 17 12 24 12 20 28 30 24 22 16 18 16 13 16 15 7 9 9 11 8 10 7 5 9 6 7 8 15 17 18
12 15 15 15 18 19 19 19 22 23 12 15 16 15 15 20 10 12 11 19 20 28 21 22 10 16 9 9 7 8 10 7 9 12 6 8 8 11 9 6 8 13 13 16 18
13 13 14 16 18 19 19 20 24 21 20 16 16 13 14 13 24 9 14 15 18 18 17 17 11 17 11 8 11 10 10 9 14 12 7 9 14 14 7 9 11 14 14 15 16
13 12 13 14 14 19 23 22 20 27 21 17 15 13 12 14 20 26 15 15 16 16 19 16 11 12 6 13 8 15 11 18 9 15 6 13 9 12 6 10 12 12 13 14 15
12 13 13 15 16 17 20 24 21 25 21 18 14 11 17 15 14 20 20 16 14 14 10 15 13 10 13 14 15 17 16 19 14 14 11 14 10 10 6 10 11 12 11 12 15
9 15 13 13 15 16 21 32 6 8 28 8 15 13 4 16 17 21 25 20 15 20 14 21 14 19 23 20 15 15 20 14 17 9 13 16 16 11 10 9 10 10 11 11 12
10 13 12 12 11 12 15 7 8 9 12 25 27 33 10 17 10 19 25 17 18 18 19 11 20 19 15 17 12 12 17 18 7 7 9 14 16 11 10 10 9 9 10 10 11
14 14 12 12 11 11 5 5 16 15 6 9 39 19 19 18 18 28 31 19 18 20 23 19 11 18 18 18 16 13 17 15 7 9 7 6 12 15 11 10 9 8 8 8 10
13 12 12 12 6 5 8 6 20 26 4 8 13 11 30 16 11 20 34 24 11 22 20 15 16 18 16 20 18 17 6 6 11 13 6 12 7 21 17 15 13 13 11 9 8
14 13 13 12 10 6 8 10 13 11 5 15 12 9 29 23 15 19 31 21 19 17 17 11 9 17 19 24 20 9 11 9 11 12 1 8 5 4 15 14 16 17 14 11 8
14 14 14 9 10 10 8 10 6 4 6 5 14 11 20 22 15 19 26 12 12 13 18 10 2 11 16 16 18 17 14 10 5 3 5 12 11 11 9 15 17 18 16 12 9
19 17 18 13 8 13 8 4 2 5 13 6 7 18 24 20 18 15 24 21 14 17 18 12 9 3 6 11 10 15 17 4 5 3 7 2 9 10 8 5 5 18 18 14 11
22 20 14 11 10 9 3 3 6 8 7 7 7 23 26 21 22 19 22 24 24 20 15 14 9 14 11 14 10 19 18 6 9 8 8 3 8 5 6 5 6 18 17 14 13
23 14 9 2 2 8 5 4 4 5 2 4 13 12 22 23 15 19 22 26 26 24 13 17 13 9 13 3 17 15 19 4 2 3 7 7 7 5 6 7 14 19 20 18 15
20 12 3 3 1 12 3 6 6 3 4 2 2 11 20 24 17 22 24 26 27 25 24 16 13 13 5 4 6 9 13 8 4 9 7 8 10 8 12 16 17 19 21 20 18
12 8 4 5 4 7 4 6 9 9 8 7 8 8 15 21 22 25 23 19 29 27 21 13 15 9 9 13 17 6 11 8 6 8 7 8 7 3 14 18 19 21 24 23 20
9 4 8 8 3 2 3 5 10 13 8 10 7 10 10 15 24 24 27 23 35 25 27 18 11 7 17 4 4 18 16 20 8 9 4 5 10 2 4 14 22 23 24 23 22
10 5 7 3 3 6 14 11 18 14 17 6 8 12 3 6 13 24 24 25 34 25 21 16 9 7 9 4 5 10 18 16 16 6 16 10 7 3 2 11 20 24 25 24 23
5 3 3 2 4 6 12 14 14 11 16 18 12 12 11 11 18 24 24 14 29 25 28 19 11 17 14 16 11 11 17 14 17 10 12 15 14 6 9 14 19 25 27 27 25
5 3 2 3 8 11 14 10 16 9 10 13 7 19 12 6 16 15 21 5 6 24 17 13 19 18 20 11 18 18 22 20 20 24 17 16 16 7 15 17 24 27 28 29 28
6 3 5 11 11 8 11 3 14 9 3 10 9 12 12 12 7 12 19 12 11 10 14 13 4 12 12 13 10 13 19 20 22 24 21 17 17 2 16 20 26 30 33 32 31
12 14 9 7 6 8 5 7 18 21 19 24 23 18 15 18 20 13 7 8 5 12 15 8 6 3 16 8 5 1 18 24 21 22 20 20 15 11 12 16 28 33 36 34 33
Wind_Direction
300 296 284 279 277 269 266 262 266 266 260 255 262 260 263 251 231 232 232 226 222 205 196 194 186 181 175 194 202 238 235 214 202 210 144 160 163 169 143 138 165 162 93 134 160
296 304 296 276 278 270 274 263 258 266 265 257 257 260 263 263 251 247 233 227 223 207 192 183 183 174 182 189 196 219 228 223 214 201 163 176 184 163 168 163 169 153 117 145 156
291 295 301 292 291 283 269 280 264 253 262 261 252 258 258 263 273 260 239 224 219 203 196 185 186 179 190 180 190 201 236 232 188 195 180 175 191 171 195 187 182 182 158 161 165
284 294 298 293 287 287 284 275 273 242 250 256 250 247 250 231 215 249 233 211 211 202 188 192 186 191 193 195 192 213 231 275 160 163 168 174 179 190 200 102 97 158 172 172 178
284 284 298 303 293 298 284 279 275 262 241 247 247 236 222 223 234 261 316 215 193 197 191 186 190 198 195 199 180 215 189 200 179 158 168 157 181 187 198 163 135 160 170 179 184
288 279 288 301 317 308 308 280 269 261 226 239 241 228 222 240 248 247 287 192 192 192 193 193 202 200 211 201 196 202 186 181 174 161 159 177 167 173 172 174 189 171 179 186 188
288 286 293 303 310 316 313 279 264 265 237 229 230 228 236 229 247 244 230 195 196 189 194 199 226 200 182 172 170 163 164 171 191 174 156 191 196 212 157 191 185 190 185 188 191
293 295 295 301 311 309 301 305 263 278 242 212 221 223 240 246 234 234 204 202 197 195 190 199 199 213 221 141 156 178 205 184 180 177 163 197 222 192 177 190 187 187 185 188 190
302 298 301 306 312 309 317 300 269 268 230 200 208 203 238 233 231 228 221 192 199 200 199 197 192 204 184 176 167 191 196 201 154 195 149 197 224 143 182 193 189 183 188 190 186
308 310 313 314 319 317 317 326 294 258 220 181 197 188 232 216 195 207 202 180 175 179 177 182 192 204 206 198 196 187 222 198 189 189 197 197 241 146 164 184 185 187 180 183 186
324 314 315 312 315 318 330 326 349 216 207 261 190 207 319 188 192 192 192 168 190 191 192 190 197 209 203 210 222 200 204 193 210 158 191 207 218 184 176 175 185 182 182 177 176
319 319 317 320 313 314 332 16 334 343 297 233 244 208 181 178 164 180 173 164 182 199 199 183 214 210 214 207 220 220 203 210 77 161 215 209 220 181 187 199 193 189 188 183 188
327 325 320 319 320 314 314 333 338 319 267 230 230 223 194 191 201 185 177 180 186 200 204 204 203 209 213 201 205 211 207 196 195 169 212 194 231 196 201 196 191 196 194 196 198
327 329 328 328 327 311 302 312 340 334 266 182 191 246 204 193 211 196 185 169 185 203 201 224 211 192 199 201 200 205 212 231 145 171 206 199 242 201 193 201 201 194 194 188 189
337 332 327 328 313 303 296 324 339 332 240 170 161 201 188 188 126 180 185 196 194 183 189 192 162 189 203 199 195 211 149 160 183 205 202 196 245 240 185 204 202 193 186 180 173
337 335 328 327 308 294 310 314 316 251 236 143 145 187 179 198 192 150 183 193 197 187 198 194 322 195 215 202 192 136 121 110 109 170 230 217 213 233 185 216 204 181 179 172 159
331 325 312 293 265 286 308 324 250 247 338 143 175 177 194 182 185 175 181 194 171 175 187 185 175 132 166 135 176 167 160 148 192 209 234 7 219 248 93 68 213 170 171 163 152
333 323 310 292 256 255 244 228 236 224 237 327 305 190 192 184 182 187 186 190 207 204 174 182 195 179 183 182 177 195 182 161 189 197 206 153 223 217 102 110 145 159 163 157 151
334 328 320 341 270 187 203 222 267 254 71 254 326 202 205 202 182 184 195 199 198 202 181 187 194 131 177 171 164 200 213 226 128 10 225 195 242 159 148 150 151 160 164 163 157
337 330 304 8 242 191 224 255 244 339 29 336 248 295 195 196 204 188 192 202 200 206 221 187 187 193 150 175 212 213 168 192 217 167 208 196 226 227 197 191 178 174 175 166 159
340 330 281 316 337 197 233 252 304 311 253 211 217 260 279 188 204 197 197 189 202 199 214 225 206 161 156 211 179 162 187 218 221 216 211 227 226 200 205 187 185 179 175 167 163
341 320 314 310 293 239 269 283 319 279 285 233 254 238 280 284 201 193 215 202 189 191 198 209 211 171 198 117 320 212 198 197 202 186 237 282 241 32 21 176 174 171 168 168 166
322 295 301 329 307 331 318 289 297 272 262 230 233 222 210 290 218 215 212 202 183 184 188 177 197 144 154 232 200 218 214 224 227 221 212 213 211 112 132 151 171 168 169 169 165
329 316 319 283 286 299 318 311 314 302 274 258 258 263 248 259 277 197 207 222 190 190 203 167 199 196 195 209 164 203 212 209 210 215 215 218 224 176 178 167 168 171 173 171 168
5 342 284 300 313 305 292 295 297 295 273 291 236 235 240 291 227 195 201 120 292 206 203 197 220 208 220 214 186 198 197 195 207 216 206 216 223 182 187 181 176 173 173 171 171
353 335 310 284 287 276 297 276 297 297 305 292 267 270 234 224 266 195 188 179 186 213 212 210 256 233 230 212 191 196 203 197 210 221 229 237 233 280 162 164 173 176 176 176 175
336 326 284 279 295 297 326 313 302 300 289 262 270 272 252 245 244 324 177 189 163 164 193 188 145 137 226 210 115 249 205 199 213 223 217 227 226 141 153 176 182 179 181 178 175
Height
1476 1475 1474 1474 1472 1471 1471 1471 1472 1472 1472 1471 1474 1475 1476 1474 1472 1474 1473 1477 1479 1480 1483 1485 1488 1491 1493 1496 1498 1498 1491 1488 1484 1485 1486 1495 1496 1502 1504 1506 1510 1513 1513 1517 1521
1474 1472 1471 1469 1468 1467 1466 1466 1467 1468 1469 1468 1470 1472 1473 1472 1471 1468 1468 1474 1476 1478 1481 1482 1487 1489 1491 1493 1496 1494 1489 1481 1477 1481 1484 1493 1495 1500 1504 1506 1510 1513 1516 1519 1521
1471 1469 1467 1466 1465 1463 1463 1462 1463 1463 1465 1466 1467 1469 1470 1470 1472 1461 1464 1469 1473 1477 1480 1483 1487 1488 1487 1489 1490 1490 1487 1479 1484 1486 1488 1493 1495 1499 1500 1504 1505 1509 1515 1518 1519
1467 1466 1464 1463 1462 1460 1459 1458 1459 1460 1462 1463 1465 1466 1467 1468 1470 1459 1459 1463 1469 1475 1478 1481 1484 1485 1483 1484 1485 1487 1485 1484 1485 1490 1490 1493 1496 1499 1500 1503 1505 1508 1511 1515 1517
1464 1463 1462 1461 1458 1458 1455 1455 1454 1455 1458 1459 1462 1463 1463 1465 1458 1457 1458 1460 1463 1471 1473 1477 1480 1481 1477 1479 1484 1484 1482 1488 1490 1491 1492 1494 1495 1496 1500 1504 1505 1507 1511 1514 1517
1461 1461 1459 1458 1455 1454 1452 1450 1450 1450 1453 1456 1458 1460 1461 1460 1455 1456 1458 1459 1460 1465 1472 1476 1477 1479 1477 1475 1480 1479 1483 1487 1490 1491 1494 1494 1497 1499 1499 1502 1504 1507 1510 1513 1516
1459 1459 1457 1454 1453 1451 1449 1446 1447 1448 1448 1452 1455 1456 1457 1454 1452 1453 1457 1461 1462 1463 1470 1473 1476 1478 1474 1474 1478 1480 1483 1487 1489 1490 1492 1494 1498 1495 1498 1500 1502 1505 1508 1511 1514
1457 1455 1454 1453 1451 1449 1447 1444 1442 1440 1444 1447 1450 1454 1449 1449 1451 1452 1454 1459 1462 1466 1467 1473 1475 1478 1475 1474 1476 1480 1478 1486 1482 1489 1492 1494 1488 1489 1496 1499 1500 1503 1506 1509 1513
1455 1454 1452 1451 1450 1447 1445 1442 1438 1439 1439 1442 1447 1451 1447 1442 1445 1448 1453 1456 1462 1465 1466 1469 1474 1474 1475 1469 1474 1472 1476 1475 1485 1486 1489 1491 1482 1488 1495 1496 1498 1501 1504 1508 1511
1453 1452 1451 1449 1447 1444 1441 1438 1432 1432 1434 1434 1443 1451 1440 1436 1441 1445 1450 1454 1460 1464 1468 1468 1471 1470 1467 1462 1466 1467 1471 1468 1470 1483 1486 1488 1483 1490 1495 1495 1497 1499 1503 1506 1509
1451 1450 1449 1447 1444 1443 1440 1436 1432 1433 1428 1422 1425 1426 1425 1434 1437 1441 1446 1451 1458 1462 1460 1462 1464 1459 1456 1457 1453 1454 1463 1464 1465 1476 1482 1480 1481 1487 1493 1495 1496 1498 1501 1504 1508
1450 1449 1448 1446 1444 1442 1441 1440 1443 1443 1431 1424 1420 1427 1428 1429 1434 1439 1443 1446 1451 1454 1455 1462 1453 1455 1456 1458 1460 1455 1459 1461 1475 1481 1483 1477 1479 1479 1491 1492 1494 1497 1500 1502 1506
1449 1447 1446 1444 1443 1442 1441 1441 1439 1438 1433 1419 1418 1420 1423 1428 1426 1432 1437 1439 1443 1449 1447 1450 1448 1452 1455 1457 1463 1460 1458 1458 1469 1483 1481 1477 1482 1478 1487 1492 1495 1497 1498 1500 1502
1449 1446 1445 1443 1444 1441 1442 1440 1438 1437 1429 1411 1412 1415 1420 1423 1422 1425 1429 1434 1440 1441 1447 1450 1446 1448 1453 1455 1459 1463 1458 1457 1473 1477 1479 1473 1477 1466 1474 1485 1490 1493 1495 1497 1499
1448 1446 1444 1441 1441 1442 1442 1438 1435 1434 1406 1395 1406 1412 1412 1411 1413 1423 1427 1432 1430 1433 1443 1442 1446 1451 1453 1449 1455 1459 1460 1465 1470 1470 1474 1479 1482 1452 1459 1474 1479 1486 1491 1495 1497
1448 1445 1443 1442 1439 1439 1438 1436 1436 1431 1396 1395 1396 1405 1405 1407 1410 1419 1426 1430 1430 1433 1440 1439 1447 1447 1446 1448 1451 1459 1465 1472 1474 1477 1487 1464 1473 1454 1467 1462 1464 1479 1488 1492 1495
1446 1443 1440 1440 1439 1435 1435 1435 1432 1428 1409 1394 1396 1399 1401 1397 1405 1412 1419 1423 1420 1433 1437 1439 1447 1448 1449 1455 1455 1453 1460 1485 1491 1495 1481 1474 1469 1454 1457 1461 1459 1474 1485 1490 1493
1443 1439 1436 1434 1435 1434 1435 1438 1430 1406 1410 1408 1407 1393 1394 1392 1397 1407 1413 1417 1417 1415 1426 1437 1452 1446 1444 1442 1451 1451 1446 1465 1478 1476 1470 1483 1474 1448 1461 1467 1468 1475 1484 1489 1492
1440 1437 1434 1433 1431 1433 1436 1428 1410 1402 1406 1404 1409 1391 1391 1387 1390 1399 1403 1405 1408 1408 1412 1424 1433 1441 1443 1444 1443 1455 1450 1443 1461 1467 1458 1457 1455 1465 1467 1469 1471 1476 1481 1486 1491
1438 1435 1434 1433 1432 1433 1433 1418 1418 1414 1415 1415 1416 1402 1384 1385 1390 1389 1393 1396 1403 1404 1402 1407 1426 1439 1445 1447 1445 1440 1443 1462 1457 1476 1467 1450 1450 1443 1462 1463 1468 1473 1478 1484 1489
1440 1436 1433 1433 1433 1433 1428 1418 1409 1409 1410 1413 1409 1410 1395 1379 1388 1393 1380 1384 1394 1400 1405 1404 1407 1442 1444 1437 1433 1447 1441 1442 1440 1441 1454 1449 1441 1431 1436 1447 1457 1465 1473 1480 1486
1440 1438 1433 1432 1433 1429 1424 1421 1420 1410 1410 1411 1411 1406 1406 1400 1381 1384 1378 1378 1386 1396 1401 1403 1405 1434 1428 1435 1437 1428 1428 1431 1442 1444 1445 1441 1435 1442 1441 1443 1453 1463 1471 1479 1484
1441 1437 1434 1432 1429 1426 1421 1417 1414 1411 1407 1406 1402 1398 1397 1397 1382 1375 1376 1376 1381 1388 1395 1397 1403 1422 1434 1436 1435 1432 1423 1423 1424 1426 1436 1446 1432 1446 1446 1447 1455 1464 1471 1478 1483
1442 1438 1434 1433 1432 1430 1423 1415 1406 1401 1398 1397 1394 1394 1396 1394 1386 1368 1374 1377 1377 1383 1389 1393 1390 1396 1404 1399 1411 1432 1423 1428 1426 1435 1430 1428 1423 1443 1447 1448 1454 1462 1469 1475 1481
1444 1441 1440 1433 1431 1430 1426 1415 1410 1407 1399 1393 1389 1391 1391 1384 1375 1364 1372 1380 1385 1381 1389 1390 1390 1389 1385 1388 1396 1405 1413 1419 1422 1413 1425 1412 1420 1420 1436 1443 1450 1458 1467 1472 1477
1448 1446 1441 1436 1432 1427 1421 1414 1412 1406 1405 1392 1389 1392 1386 1388 1377 1371 1367 1375 1378 1386 1387 1387 1401 1391 1393 1388 1397 1403 1406 1414 1416 1411 1416 1411 1414 1420 1426 1440 1448 1453 1459 1465 1472
1448 1445 1441 1432 1427 1423 1418 1416 1412 1410 1392 1389 1387 1387 1381 1375 1376 1374 1369 1372 1373 1379 1386 1393 1399 1402 1398 1394 1409 1420 1402 1401 1406 1407 1407 1414 1414 1420 1429 1435 1438 1444 1452 1459 1468